Time,TemperatureF,DewpointF,PressureIn,WindDirection,WindDirectionDegrees,WindSpeedMPH,WindSpeedGustMPH,Humidity,HourlyPrecipIn,Conditions,Clouds,dailyrainin,SoftwareType,DateUTC
2013-02-04 00:05:00,19.1,10.0,29.91,WNW,294,2.0,5.0,69,0.00,,,0.00,weatherlink.com 1.10,2013-02-04 05:05:00,
2013-02-04 00:20:00,19.1,11.0,29.91,NW,311,2.0,3.0,70,0.00,,,0.00,weatherlink.com 1.10,2013-02-04 05:20:00,
2013-02-04 00:35:00,19.2,11.0,29.91,NW,320,3.0,5.0,69,0.00,,,0.00,weatherlink.com 1.10,2013-02-04 05:35:00,
2013-02-04 00:50:00,19.5,12.0,29.91,WNW,302,2.0,8.0,71,0.00,,,0.00,weatherlink.com 1.10,2013-02-04 05:50:00,
2013-02-04 01:05:00,19.4,12.0,29.90,WNW,288,4.0,7.0,72,0.00,,,0.00,weatherlink.com 1.10,2013-02-04 06:05:00,
2013-02-04 01:20:00,19.3,12.0,29.90,WNW,303,6.0,7.0,74,0.00,,,0.00,weatherlink.com 1.10,2013-02-04 06:20:00,
2013-02-04 01:35:00,19.0,12.0,29.90,WNW,290,4.0,6.0,75,0.00,,,0.00,weatherlink.com 1.10,2013-02-04 06:35:00,
2013-02-04 01:50:00,18.9,13.0,29.90,West,281,4.0,7.0,77,0.00,,,0.00,weatherlink.com 1.10,2013-02-04 06:50:00,
2013-02-04 02:05:00,18.7,13.0,29.91,NNW,331,4.0,7.0,78,0.00,,,0.00,weatherlink.com 1.10,2013-02-04 07:05:00,
2013-02-04 02:20:00,18.6,13.0,29.91,NW,319,3.0,8.0,79,0.00,,,0.00,weatherlink.com 1.10,2013-02-04 07:20:00,
2013-02-04 02:35:00,18.4,14.0,29.91,WNW,286,2.0,6.0,81,0.00,,,0.00,weatherlink.com 1.10,2013-02-04 07:35:00,
2013-02-04 02:50:00,18.4,14.0,29.90,WNW,286,6.0,7.0,82,0.00,,,0.00,weatherlink.com 1.10,2013-02-04 07:50:00,
2013-02-04 03:05:00,18.3,14.0,29.90,West,273,3.0,4.0,83,0.00,,,0.00,weatherlink.com 1.10,2013-02-04 08:05:00,
2013-02-04 03:20:00,18.1,14.0,29.90,WNW,284,1.0,4.0,82,0.00,,,0.00,weatherlink.com 1.10,2013-02-04 08:20:00,
2013-02-04 03:35:00,18.2,14.0,29.90,WNW,290,1.0,7.0,83,0.00,,,0.00,weatherlink.com 1.10,2013-02-04 08:35:00,
2013-02-04 03:50:00,18.3,14.0,29.89,WNW,285,4.0,6.0,82,0.00,,,0.00,weatherlink.com 1.10,2013-02-04 08:50:00,
2013-02-04 04:05:00,18.4,14.0,29.89,WNW,296,5.0,11.0,82,0.00,,,0.00,weatherlink.com 1.10,2013-02-04 09:05:00,
2013-02-04 04:20:00,18.4,14.0,29.91,NW,324,2.0,11.0,82,0.00,,,0.00,weatherlink.com 1.10,2013-02-04 09:20:00,
2013-02-04 04:36:00,18.4,14.0,29.91,West,278,1.0,8.0,82,0.00,,,0.00,weatherlink.com 1.10,2013-02-04 09:36:00,
2013-02-04 04:50:00,18.5,13.0,29.91,SW,227,3.0,4.0,80,0.00,,,0.00,weatherlink.com 1.10,2013-02-04 09:50:00,
2013-02-04 05:06:00,18.7,12.0,29.92,WNW,297,3.0,9.0,76,0.00,,,0.00,weatherlink.com 1.10,2013-02-04 10:06:00,
2013-02-04 05:21:00,18.7,12.0,29.92,NNW,348,2.0,11.0,74,0.00,,,0.00,weatherlink.com 1.10,2013-02-04 10:21:00,
2013-02-04 05:36:00,18.6,12.0,29.92,NW,307,6.0,10.0,74,0.00,,,0.00,weatherlink.com 1.10,2013-02-04 10:36:00,
2013-02-04 05:51:00,18.7,12.0,29.92,NNW,333,3.0,17.0,76,0.00,,,0.00,weatherlink.com 1.10,2013-02-04 10:51:00,
2013-02-04 06:05:00,18.6,12.0,29.93,WNW,291,6.0,12.0,76,0.00,,,0.00,weatherlink.com 1.10,2013-02-04 11:05:00,
2013-02-04 06:21:00,18.3,11.0,29.94,WNW,302,7.0,13.0,73,0.00,,,0.00,weatherlink.com 1.10,2013-02-04 11:21:00,
2013-02-04 06:36:00,17.9,11.0,29.94,WNW,295,12.0,15.0,73,0.00,,,0.00,weatherlink.com 1.10,2013-02-04 11:36:00,
2013-02-04 06:51:00,17.6,10.0,29.95,WNW,301,3.0,10.0,73,0.00,,,0.00,weatherlink.com 1.10,2013-02-04 11:51:00,
2013-02-04 07:06:00,17.5,10.0,29.95,NW,323,5.0,16.0,73,0.00,,,0.00,weatherlink.com 1.10,2013-02-04 12:06:00,
2013-02-04 07:21:00,17.5,10.0,29.95,WNW,284,6.0,10.0,73,0.00,,,0.00,weatherlink.com 1.10,2013-02-04 12:21:00,
2013-02-04 07:36:00,17.7,10.0,29.96,NW,319,11.0,17.0,72,0.00,,,0.00,weatherlink.com 1.10,2013-02-04 12:36:00,
2013-02-04 07:51:00,17.8,10.0,29.96,NNW,331,5.0,12.0,72,0.00,,,0.00,weatherlink.com 1.10,2013-02-04 12:51:00,
2013-02-04 08:06:00,18.0,10.0,29.96,NNW,348,4.0,16.0,71,0.00,,,0.00,weatherlink.com 1.10,2013-02-04 13:06:00,
2013-02-04 08:21:00,18.2,10.0,29.97,NW,311,15.0,28.0,70,0.00,,,0.00,weatherlink.com 1.10,2013-02-04 13:21:00,
2013-02-04 08:36:00,18.1,11.0,29.97,NNW,333,5.0,12.0,72,0.00,,,0.00,weatherlink.com 1.10,2013-02-04 13:36:00,
2013-02-04 08:51:00,18.2,10.0,29.98,NNW,329,1.0,12.0,70,0.00,,,0.00,weatherlink.com 1.10,2013-02-04 13:51:00,
2013-02-04 09:06:00,18.3,10.0,29.98,WNW,291,7.0,12.0,69,0.00,,,0.00,weatherlink.com 1.10,2013-02-04 14:06:00,
2013-02-04 09:21:00,18.6,10.0,29.98,NW,305,6.0,13.0,68,0.00,,,0.00,weatherlink.com 1.10,2013-02-04 14:21:00,
2013-02-04 09:36:00,19.1,10.0,29.98,West,267,5.0,10.0,68,0.00,,,0.00,weatherlink.com 1.10,2013-02-04 14:36:00,
2013-02-04 09:51:00,18.9,10.0,29.98,WNW,288,4.0,12.0,67,0.00,,,0.00,weatherlink.com 1.10,2013-02-04 14:51:00,
2013-02-04 10:06:00,19.2,9.0,29.98,NNW,340,3.0,16.0,65,0.00,,,0.00,weatherlink.com 1.10,2013-02-04 15:06:00,
2013-02-04 10:21:00,19.5,9.0,29.98,NW,310,4.0,12.0,65,0.00,,,0.00,weatherlink.com 1.10,2013-02-04 15:21:00,
2013-02-04 10:36:00,19.7,10.0,29.98,NW,315,4.0,9.0,66,0.00,,,0.00,weatherlink.com 1.10,2013-02-04 15:36:00,
2013-02-04 10:51:00,19.7,10.0,29.98,East,81,3.0,13.0,65,0.00,,,0.00,weatherlink.com 1.10,2013-02-04 15:51:00,
2013-02-04 11:06:00,20.3,9.0,29.98,WNW,294,12.0,12.0,61,0.00,,,0.00,weatherlink.com 1.10,2013-02-04 16:06:00,
2013-02-04 11:21:00,20.5,8.0,29.98,WNW,291,7.0,23.0,58,0.00,,,0.00,weatherlink.com 1.10,2013-02-04 16:21:00,
2013-02-04 11:36:00,20.6,7.0,29.98,WNW,290,5.0,19.0,56,0.00,,,0.00,weatherlink.com 1.10,2013-02-04 16:36:00,
2013-02-04 11:51:00,20.4,7.0,29.97,WNW,294,3.0,20.0,57,0.00,,,0.00,weatherlink.com 1.10,2013-02-04 16:51:00,
2013-02-04 12:09:00,21.5,8.0,29.97,NW,315,10.0,12.0,55,0.00,,,0.00,weatherlink.com 1.10,2013-02-04 17:09:00,
2013-02-04 12:21:00,21.5,6.0,29.96,West,266,11.0,26.0,52,0.00,,,0.00,weatherlink.com 1.10,2013-02-04 17:21:00,
2013-02-04 12:37:00,22.5,8.0,29.96,NW,319,8.0,23.0,55,0.00,,,0.00,weatherlink.com 1.10,2013-02-04 17:37:00,
2013-02-04 12:51:00,21.9,7.0,29.96,WNW,287,6.0,18.0,53,0.00,,,0.00,weatherlink.com 1.10,2013-02-04 17:51:00,
2013-02-04 13:07:00,22.2,7.0,29.96,WNW,286,6.0,15.0,52,0.00,,,0.00,weatherlink.com 1.10,2013-02-04 18:07:00,
2013-02-04 13:21:00,21.3,6.0,29.95,West,279,4.0,28.0,51,0.00,,,0.00,weatherlink.com 1.10,2013-02-04 18:21:00,
2013-02-04 13:51:00,22.8,7.0,29.96,WSW,250,4.0,17.0,50,0.00,,,0.00,weatherlink.com 1.10,2013-02-04 18:51:00,
2013-02-04 14:06:00,21.6,7.0,29.96,West,276,10.0,23.0,53,0.00,,,0.00,weatherlink.com 1.10,2013-02-04 19:06:00,
2013-02-04 14:22:00,20.9,9.0,29.97,WNW,289,16.0,21.0,61,0.00,,,0.00,weatherlink.com 1.10,2013-02-04 19:22:00,
2013-02-04 14:36:00,21.7,10.0,29.97,NW,320,6.0,19.0,60,0.00,,,0.00,weatherlink.com 1.10,2013-02-04 19:36:00,
2013-02-04 14:51:00,21.6,7.0,29.98,WNW,298,6.0,19.0,53,0.00,,,0.00,weatherlink.com 1.10,2013-02-04 19:51:00,
2013-02-04 15:06:00,20.7,7.0,29.98,West,273,10.0,20.0,55,0.00,,,0.00,weatherlink.com 1.10,2013-02-04 20:06:00,
2013-02-04 15:21:00,20.4,6.0,29.98,NW,306,9.0,22.0,54,0.00,,,0.00,weatherlink.com 1.10,2013-02-04 20:21:00,
2013-02-04 15:37:00,20.2,5.0,29.97,NW,304,9.0,20.0,53,0.00,,,0.00,weatherlink.com 1.10,2013-02-04 20:37:00,
2013-02-04 15:51:00,20.5,6.0,29.98,West,272,8.0,15.0,54,0.00,,,0.00,weatherlink.com 1.10,2013-02-04 20:51:00,
2013-02-04 16:07:00,20.7,6.0,29.98,NW,317,10.0,16.0,53,0.00,,,0.00,weatherlink.com 1.10,2013-02-04 21:07:00,
2013-02-04 16:21:00,20.6,7.0,29.98,WNW,287,2.0,11.0,55,0.00,,,0.00,weatherlink.com 1.10,2013-02-04 21:21:00,
2013-02-04 16:37:00,20.4,6.0,29.98,NW,315,1.0,14.0,54,0.00,,,0.00,weatherlink.com 1.10,2013-02-04 21:37:00,
2013-02-04 16:52:00,20.2,6.0,29.98,West,279,2.0,9.0,54,0.00,,,0.00,weatherlink.com 1.10,2013-02-04 21:52:00,
2013-02-04 17:07:00,19.8,6.0,29.99,WNW,289,3.0,9.0,55,0.00,,,0.00,weatherlink.com 1.10,2013-02-04 22:07:00,
2013-02-04 17:22:00,19.5,6.0,30.00,NW,319,6.0,10.0,56,0.00,,,0.00,weatherlink.com 1.10,2013-02-04 22:22:00,
2013-02-04 17:37:00,19.3,6.0,30.01,West,279,3.0,14.0,57,0.00,,,0.00,weatherlink.com 1.10,2013-02-04 22:37:00,
2013-02-04 17:52:00,19.1,6.0,30.00,NW,311,4.0,13.0,56,0.00,,,0.00,weatherlink.com 1.10,2013-02-04 22:52:00,
2013-02-04 18:07:00,18.8,6.0,30.01,WNW,288,12.0,15.0,57,0.00,,,0.00,weatherlink.com 1.10,2013-02-04 23:07:00,
2013-02-04 18:22:00,18.5,6.0,30.02,NNW,346,5.0,14.0,58,0.00,,,0.00,weatherlink.com 1.10,2013-02-04 23:22:00,
2013-02-04 18:37:00,18.3,6.0,30.02,NNW,348,1.0,15.0,59,0.00,,,0.00,weatherlink.com 1.10,2013-02-04 23:37:00,
2013-02-04 18:52:00,17.8,6.0,30.03,WNW,295,3.0,10.0,61,0.00,,,0.00,weatherlink.com 1.10,2013-02-04 23:52:00,
2013-02-04 19:07:00,17.7,6.0,30.03,NNW,336,2.0,12.0,61,0.00,,,0.00,weatherlink.com 1.10,2013-02-05 00:07:00,
2013-02-04 19:22:00,17.4,6.0,30.04,WSW,247,1.0,8.0,62,0.00,,,0.00,weatherlink.com 1.10,2013-02-05 00:22:00,
2013-02-04 19:37:00,17.2,6.0,30.05,SW,236,0.0,8.0,62,0.00,,,0.00,weatherlink.com 1.10,2013-02-05 00:37:00,
2013-02-04 19:52:00,16.9,7.0,30.06,North,355,4.0,8.0,64,0.00,,,0.00,weatherlink.com 1.10,2013-02-05 00:52:00,
2013-02-04 20:07:00,17.0,6.0,30.05,NW,321,0.0,10.0,63,0.00,,,0.00,weatherlink.com 1.10,2013-02-05 01:07:00,
2013-02-04 20:22:00,17.1,6.0,30.06,NW,323,4.0,10.0,62,0.00,,,0.00,weatherlink.com 1.10,2013-02-05 01:22:00,
2013-02-04 20:37:00,16.8,6.0,30.06,WNW,290,1.0,7.0,63,0.00,,,0.00,weatherlink.com 1.10,2013-02-05 01:37:00,
2013-02-04 20:52:00,16.6,6.0,30.06,NW,309,3.0,8.0,62,0.00,,,0.00,weatherlink.com 1.10,2013-02-05 01:52:00,
2013-02-04 21:07:00,16.4,6.0,30.06,WNW,291,2.0,6.0,63,0.00,,,0.00,weatherlink.com 1.10,2013-02-05 02:07:00,
2013-02-04 21:22:00,16.3,6.0,30.06,WSW,249,2.0,9.0,63,0.00,,,0.00,weatherlink.com 1.10,2013-02-05 02:22:00,
2013-02-04 21:36:00,16.0,5.0,30.06,NW,320,2.0,6.0,63,0.00,,,0.00,weatherlink.com 1.10,2013-02-05 02:36:00,
2013-02-04 21:52:00,15.6,5.0,30.06,WNW,284,0.0,3.0,64,0.00,,,0.00,weatherlink.com 1.10,2013-02-05 02:52:00,
2013-02-04 22:07:00,15.7,5.0,30.06,NW,319,0.0,6.0,64,0.00,,,0.00,weatherlink.com 1.10,2013-02-05 03:07:00,
2013-02-04 22:22:00,15.4,6.0,30.07,WNW,294,2.0,2.0,65,0.00,,,0.00,weatherlink.com 1.10,2013-02-05 03:22:00,
2013-02-04 22:37:00,15.5,6.0,30.07,WNW,297,3.0,10.0,65,0.00,,,0.00,weatherlink.com 1.10,2013-02-05 03:37:00,
2013-02-04 22:53:00,15.5,6.0,30.07,WNW,292,3.0,11.0,66,0.00,,,0.00,weatherlink.com 1.10,2013-02-05 03:53:00,
2013-02-04 23:07:00,15.3,6.0,30.07,NW,306,0.0,7.0,67,0.00,,,0.00,weatherlink.com 1.10,2013-02-05 04:07:00,
2013-02-04 23:23:00,14.9,6.0,30.08,West,278,0.0,3.0,67,0.00,,,0.00,weatherlink.com 1.10,2013-02-05 04:23:00,
2013-02-04 23:37:00,14.6,6.0,30.09,West,265,0.0,3.0,68,0.00,,,0.00,weatherlink.com 1.10,2013-02-05 04:37:00,
2013-02-04 23:52:00,14.0,6.0,30.09,West,265,0.0,0.0,69,0.00,,,0.00,weatherlink.com 1.10,2013-02-05 04:52:00,